Regional Weather Roundup
Issued by NWS Bismarck, ND

Home | Current Version | Previous Version | Text Only | Print | Product List | Glossary On
Versions: 1 2 3 4 5 6 7 8 9 10 11 12 13 14 15 16 17 18 19 20 21 22 23 24 25 26 27 28 29 30 31 32 33 34 35 36 37 38 39 40 41 42 43 44 45 46 47 48 49 50
000
ASUS43 KBIS 251002
RWRBIS

NWR BROADCAST TEXT
NATIONAL WEATHER SERVICE BISMARCK ND
500 AM CDT TUE APR 25 2017

NOTE: "FAIR" INDICATES FEW OR NO CLOUDS BELOW 12,000 FEET WITH NO
SIGNIFICANT WEATHER AND/OR OBSTRUCTIONS TO VISIBILITY.


CITY           SKY/WX    TMP DP  RH WIND       PRES   REMARKS
WILLISTON      CLOUDY    31  22  69 NE12      29.86S
MINOT          CLOUDY    30  25  81 N15       29.83R WCI  19
MINOT AFB      CLOUDY    29  24  81 N16       29.84R WCI  17
BISMARCK       CLOUDY    32  28  85 NE14      29.79R
DICKINSON      CLOUDY    27  26  96 NE13      29.75R FOG     WCI  16
GARRISON         N/A     29  24  82 NE12      29.81R WCI  19
HETTINGER ARPT CLOUDY    29  26  89 NE14      29.73F WCI  18
JAMESTOWN      CLOUDY    30  29  96 N20       29.72R WCI  17
HAZEN          CLOUDY    30  25  80 NE12      29.83R
LINTON           N/A     30  30 100 N15       29.74F WCI  19
MANDAN         CLOUDY    28  28 100 N15       29.78R WCI  17
STANLEY        CLOUDY    27  27 100 NE15G22   29.86R WCI  15
TIOGA          CLOUDY    27  27 100 NE15G21   29.86R WCI  15
WATFORD CITY   CLOUDY    30  25  80 NE14      29.83S WCI  20
$$

CITY           SKY/WX    TMP DP  RH WIND       PRES   REMARKS
GRAND FORKS    CLOUDY    33  30  88 N20       29.73S
GRAND FORKS AF CLOUDY    30  28  93 N20G29    29.74R WCI  18
DEVILS LAKE    CLOUDY    29  26  89 N18G26    29.78S WCI  16
FARGO          CLOUDY    33  32  96 N22       29.67R
CAVALIER       CLOUDY    30  27  86 N18G24    29.79R WCI  18
GRAFTON        CLOUDY    30  30 100 N18G25    29.79R WCI  18
GWINNER        CLOUDY    32  32 100 MISG      29.68R
LANGDON        CLOUDY    28  28 100 N18G29    29.78S WCI  16
ROLLA          CLOUDY    27  25  93 NE24      29.82S WCI  12
$$

CITY           SKY/WX    TMP DP  RH WIND       PRES   REMARKS
ABERDEEN       CLOUDY    34  30  85 N17       29.68S
MOBRIDGE       CLOUDY    34  29  82 N16G24    29.68S
BUFFALO          N/A     30  27  88 NE16      29.64R WCI  19
RAPID CITY     LGT SNOW  34  32  92 NE8       29.63F FOG
GLASGOW        CLOUDY    30  24  78 E13       29.85S WCI  20
SIDNEY         CLOUDY    30  27  88 NE12      29.84S
WOLF POINT     CLOUDY    32  26  78 E14       29.86S
GLENDIVE       CLOUDY    29  28  96 NE12      29.80R FOG     WCI  19
MILES CITY     CLOUDY    32  27  81 NE18      29.76R
BAKER          CLOUDY    29  25  85 NE14      29.74R WCI  18
$$

CITY           SKY/WX    TMP DP  RH WIND       PRES   REMARKS
BILLINGS       CLOUDY    36  35  96 NE17      29.69R
GREAT FALLS    CLOUDY    40  38  93 NW7       29.72S
$$





USA.gov is the U.S. government's official web portal to all federal, state and local government web resources and services.